Information for Miami Intl

back to airport list

ICAO Code:KMIA Country:USA
Airport Name:Miami Intl Is Hub:No
Latitude:25.7956 Longitude:-80.2871
Scheduled Departures:0 Scheduled Arrivals:0
Total Past Departures:1 Total Past Arrivals:1
Pilots Based:0 Current Pilot Location:0
KMIA 201953Z 05013G20KT 10SM FEW024 BKN045 26/19 A3001 RMK AO2 SLP162 T02610194


Nearby Destination Airports

ICAO Airport Country GC Distance View
No destination airports within a 500 NM radius!


+ Show Timetable

Scheduled Departures from KMIA

Flight To Destination Days Dep. Time Aircraft Info
No Scheduled Departures!


Scheduled Arrivals to KMIA

Flight From Origin Days Arr. Time Aircraft Info
No Scheduled Arrivals!
+ Show Recent Flight Info

Recent Departures from KMIA

Flight To Destination Pilot Flighttime Landingrate Aircraft View
ASX204 TNCM Princess Juliana Damian Belica 02.42.29 -168 ft/m B763 View Report


Recent Arrivals to KMIA

Flight From Origin Pilot Flighttime Landingrate Aircraft View
ASX203 KSFO San Francisco Damian Belica 05.10.45 -150 ft/m B763 View Report
+ Show Pilot Information

Pilots based at KMIA

Avatar Pilot ID Name Location Rank View Profile
No Pilots are based at this airport!


Pilots currently at KMIA

Avatar Pilot ID Name Location Rank On Location since View Profile
Currently there are no pilots at this airport!
- Hide Map